Regional Weather Roundup
Issued by NWS

Home | Current Version | Previous Version | Graphics & Text | Print | Product List | Glossary On
Versions: 1 2 3 4 5 6 7 8 9 10 11 12 13 14 15 16 17 18 19 20 21 22 23 24 25 26 27 28 29 30 31 32 33 34 35 36 37 38 39 40 41 42 43 44 45 46 47 48 49 50
687
ASUS45 KABQ 220410
RWRNM
NEW MEXICO REGIONAL WEATHER ROUNDUP
NATIONAL WEATHER SERVICE ALBUQUERQUE NM
1000 PM MDT MON AUG 21 2017

NOTE: "FAIR" MEANS FEW OR NO CLOUDS BELOW 12,000 FEET AGL WITH NO
       SIGNIFICANT WEATHER OR OBSTRUCTIONS TO VISION.

      THIS PRODUCT IS RELEASED AS TWO VERSIONS.  ONE VERSION NEAR
      THE TOP OF THE HOUR CONTAINING PRELIMINARY DATA FROM ALBUQUERQUE
      AND OTHER STATIONS.  A FINAL VERSION WITH ADDITIONAL DATA IS
      ISSUED ABOUT 10 MINUTES AFTER THE HOUR.

NMZ501-503-504-510>518-220500-
NORTHWEST PLATEAU/NORTHCENTRAL MOUNTAINS

CITY           SKY/WX    TMP DP  RH WIND       PRES   REMARKS
FARMINGTON     MOCLDY    71  47  42 E7        30.25R
LOS ALAMOS     CLOUDY    63  48  58 N7        30.39R
SANTA FE       CLOUDY    66  55  67 N13       30.31R
TAOS           FAIR      58  53  84 N15G21    30.42R
ANGEL FIRE     FAIR      51  49  95 CALM      30.48R

$$
NMZ402-403-502-505>509-220500-
WESTCENTRAL MOUNTAINS/SOUTHWEST MOUNTAINS

CITY           SKY/WX    TMP DP  RH WIND       PRES   REMARKS
GALLUP         FAIR      61  49  64 E3        30.30R
GRANTS         FAIR      62  47  57 CALM      30.33R
SILVER CITY    MOCLDY    67  57  70 N7        30.23S

$$
NMZ407-409-411-412-220500-
SOUTHERN DESERTS

CITY           SKY/WX    TMP DP  RH WIND       PRES   REMARKS
DEMING         FAIR      73  65  75 CALM      30.15R
LAS CRUCES     FAIR      74  63  68 S5        30.18S
HOLLOMAN AFB   FAIR      74  62  64 S5        30.17R
ALAMOGORDO     FAIR      72  63  73 S3        30.17R
T OR C         MOCLDY    78  57  48 S3        30.18R

$$
NMZ519>523-220500-
CENTRAL VALLEYS/CENTRAL HIGHLANDS

CITY           SKY/WX    TMP DP  RH WIND       PRES   REMARKS
ALBUQUERQUE    MOCLDY    72  57  59 SE7       30.23R
DOUBLE EAGLE   CLOUDY    66  63  88 CALM      30.27
MORIARTY ARPT  MOCLDY    64  58  80 NW6       30.31R
CLINES CORNERS MOCLDY    61  52  72 NW3       30.35R
BELEN          FAIR      70  59  66 S3        30.23R
SOCORRO        FAIR      69  59  71 SW7       30.19R

$$
NMZ524>526-539-540-220500-
SOUTHCENTRAL MOUNTAINS

CITY           SKY/WX    TMP DP  RH WIND       PRES   REMARKS
RUIDOSO        FAIR      63  55  77 SW9       30.36R

$$
NMZ527>531-220500-
NORTHEAST HIGHLANDS/NORTHEAST PLAINS

CITY           SKY/WX    TMP DP  RH WIND       PRES   REMARKS
LAS VEGAS      MOCLDY    58  54  86 NE6       30.36R
RATON          MOCLDY    60  57  89 NW5       30.34R
CLAYTON        FAIR      67  64  90 S9        30.20R

$$
NMZ532>537-220500-
EASTCENTRAL PLAINS

CITY           SKY/WX    TMP DP  RH WIND       PRES   REMARKS
SANTA ROSA     FAIR      66  63  89 SE8       30.19R
TUCUMCARI      FAIR      71  63  75 W3        30.14R
CANNON AFB     FAIR      69  69 100 SE3       30.20R
CLOVIS AIRPORT FAIR      67  65  93 SE6       30.20R

$$
NMZ028-029-538-220500-
SOUTHEAST PLAINS

CITY           SKY/WX    TMP DP  RH WIND       PRES   REMARKS
ROSWELL        FAIR      75  66  73 E3        30.13R
ARTESIA        FAIR      75  66  73 S9        30.13R
CARLSBAD       FAIR      74  70  87 S3        30.11R
HOBBS          FAIR      73  66  78 CALM      30.15R


$$




USA.gov is the U.S. government's official web portal to all federal, state and local government web resources and services.